Location: Stockholm
(59.3333°N, 18.0500°E)
Time: 15:59:55
(UTC+02:00)

ISS - Pass Details

Date: 31 May 2018
Orbit: 403 x 407 km, 51.6° (Epoch: 26 June)

Event Time Altitude Azimuth Distance (km) Brightness Sun altitude
Rises 23:03:44 0° 263° (W) 2,326 0.2 -6.0°
Reaches altitude 10° 23:07:04 10° 226° (SW) 1,461 -1.2 -6.2°
Maximum altitude 23:08:06 11° 208° (SSW) 1,393 -1.5 -6.2°
Drops below altitude 10° 23:09:07 10° 190° (S) 1,458 -1.5 -6.3°
Enters shadow 23:10:07 - 175° (S) 1,637 -1.4 -6.3°
